When you browse on this site, cookies collect data to enhance your experience and personalize the content and advertising you see.
Visit our Privacy Policy to learn more. By continuing to use the site, you agree to this use of cookies and data.
  • In Hungary
  • List of Countries
  • For 7 days
  • Water Temperature
  • Weather Map
  • News
  • Weather Widgets
  • user-avatar
    Login

    Hourly Weather Piaskowice

    Today, 23 August, Friday

    Time Temperature Precipitation Wind Pressure Humidity
    00:00 +16°C° 0 mm 2 mps 758 mmHg 72%
    01:00 +16°C° 0 mm 2 mps 759 mmHg 74%
    02:00 +16°C° 0 mm 2 mps 758 mmHg 77%
    03:00 +15°C° 0 mm 2 mps 758 mmHg 79%
    04:00 +15°C° 0 mm 2 mps 758 mmHg 81%
    05:00 +16°C° 0 mm 2 mps 758 mmHg 79%
    06:00 +17°C° 0 mm 2 mps 759 mmHg 76%
    07:00 +18°C° 0 mm 2 mps 759 mmHg 74%
    08:00 +20°C° 0 mm 3 mps 759 mmHg 68%
    09:00 +21°C° 0 mm 3 mps 759 mmHg 61%
    10:00 +24°C° 0 mm 3 mps 759 mmHg 55%
    11:00 +25°C° 0 mm 3 mps 759 mmHg 52%
    12:00 +26°C° 0 mm 3 mps 758 mmHg 49%
    13:00 +26°C° 0 mm 3 mps 758 mmHg 46%
    14:00 +26°C° 0 mm 3 mps 758 mmHg 47%
    15:00 +27°C° 0 mm 3 mps 757 mmHg 47%
    16:00 +27°C° 0 mm 3 mps 757 mmHg 47%
    17:00 +25°C° 0 mm 3 mps 757 mmHg 52%
    18:00 +24°C° 0 mm 3 mps 757 mmHg 57%
    19:00 +21°C° 0 mm 3 mps 757 mmHg 63%
    20:00 +20°C° 0 mm 2 mps 757 mmHg 66%
    21:00 +20°C° 0 mm 2 mps 757 mmHg 70%
    22:00 +19°C° 0 mm 2 mps 757 mmHg 74%
    23:00 +18°C° 0 mm 2 mps 757 mmHg 76%

    Tomorrow, 24 August, Saturday

    Time Temperature Precipitation Wind Pressure Humidity
    00:00 +18°C° 0 mm 2 mps 757 mmHg 78%
    01:00 +18°C° 0 mm 2 mps 757 mmHg 81%
    02:00 +17°C° 0 mm 2 mps 757 mmHg 81%
    03:00 +17°C° 0 mm 3 mps 757 mmHg 81%
    04:00 +17°C° 0 mm 3 mps 757 mmHg 81%
    05:00 +18°C° 0 mm 3 mps 757 mmHg 76%
    06:00 +19°C° 0 mm 3 mps 757 mmHg 71%
    07:00 +19°C° 0 mm 3 mps 757 mmHg 67%
    08:00 +21°C° 0 mm 4 mps 757 mmHg 61%
    09:00 +23°C° 0 mm 4 mps 757 mmHg 55%
    10:00 +26°C° 0 mm 5 mps 757 mmHg 49%
    11:00 +26°C° 0 mm 5 mps 756 mmHg 48%
    12:00 +27°C° 0 mm 5 mps 756 mmHg 46%
    13:00 +28°C° 0 mm 5 mps 756 mmHg 45%
    14:00 +28°C° 0 mm 5 mps 755 mmHg 45%
    15:00 +28°C° 0 mm 5 mps 755 mmHg 46%
    16:00 +28°C° 0 mm 5 mps 755 mmHg 46%
    17:00 +26°C° 0 mm 4 mps 755 mmHg 51%
    18:00 +23°C° 0 mm 4 mps 755 mmHg 55%
    19:00 +22°C° 0 mm 3 mps 755 mmHg 60%
    20:00 +21°C° 0 mm 3 mps 755 mmHg 61%
    21:00 +20°C° 0 mm 3 mps 755 mmHg 63%
    22:00 +20°C° 0 mm 3 mps 755 mmHg 64%
    23:00 +19°C° 0 mm 3 mps 755 mmHg 67%

    Day after tomorrow, 25 August, Sunday

    Time Temperature Precipitation Wind Pressure Humidity
    00:00 +19°C° 0 mm 3 mps 755 mmHg 69%
    01:00 +18°C° 0 mm 3 mps 755 mmHg 71%
    02:00 +18°C° 0 mm 3 mps 755 mmHg 73%
    03:00 +17°C° 0 mm 4 mps 755 mmHg 74%
    04:00 +17°C° 0 mm 4 mps 755 mmHg 76%
    05:00 +18°C° 0 mm 4 mps 755 mmHg 72%
    06:00 +19°C° 0 mm 5 mps 755 mmHg 68%
    07:00 +20°C° 0 mm 5 mps 755 mmHg 64%
    08:00 +21°C° 0 mm 5 mps 755 mmHg 58%
    09:00 +23°C° 0 mm 5 mps 755 mmHg 52%
    10:00 +26°C° 0 mm 6 mps 755 mmHg 46%
    11:00 +26°C° 0 mm 6 mps 755 mmHg 44%
    12:00 +27°C° 0 mm 6 mps 754 mmHg 42%
    13:00 +28°C° 0 mm 5 mps 754 mmHg 41%
    14:00 +28°C° 0 mm 5 mps 754 mmHg 42%
    15:00 +28°C° 0 mm 5 mps 754 mmHg 43%
    16:00 +28°C° 0 mm 5 mps 753 mmHg 44%
    17:00 +26°C° 0 mm 5 mps 753 mmHg 49%
    18:00 +25°C° 0 mm 4 mps 753 mmHg 54%
    19:00 +22°C° 0 mm 4 mps 753 mmHg 60%
    20:00 +21°C° 0 mm 4 mps 754 mmHg 62%
    21:00 +21°C° 0 mm 4 mps 754 mmHg 64%
    22:00 +20°C° 0 mm 4 mps 754 mmHg 67%
    23:00 +19°C° 0 mm 4 mps 754 mmHg 69%

    26 August, Monday

    Time Temperature Precipitation Wind Pressure Humidity
    00:00 +19°C° 0 mm 4 mps 754 mmHg 71%
    01:00 +18°C° 0 mm 3 mps 754 mmHg 73%
    02:00 +18°C° 0 mm 3 mps 754 mmHg 74%
    03:00 +17°C° 0 mm 3 mps 754 mmHg 74%
    04:00 +17°C° 0 mm 3 mps 753 mmHg 75%
    05:00 +18°C° 0 mm 4 mps 754 mmHg 71%
    06:00 +19°C° 0 mm 4 mps 754 mmHg 68%
    07:00 +19°C° 0 mm 4 mps 754 mmHg 65%
    08:00 +21°C° 0 mm 4 mps 754 mmHg 60%
    09:00 +23°C° 0 mm 5 mps 754 mmHg 55%
    10:00 +26°C° 0 mm 5 mps 754 mmHg 51%
    11:00 +27°C° 0 mm 5 mps 754 mmHg 48%
    12:00 +28°C° 0 mm 5 mps 753 mmHg 45%
    13:00 +30°C° 0 mm 5 mps 753 mmHg 42%
    14:00 +30°C° 0 mm 5 mps 753 mmHg 43%
    15:00 +30°C° 0 mm 4 mps 753 mmHg 44%
    16:00 +30°C° 0 mm 4 mps 753 mmHg 44%
    17:00 +28°C° 0 mm 4 mps 753 mmHg 50%
    18:00 +26°C° 0 mm 4 mps 753 mmHg 56%
    19:00 +25°C° 0 mm 3 mps 753 mmHg 62%
    20:00 +24°C° 0 mm 3 mps 753 mmHg 65%
    21:00 +22°C° 0 mm 3 mps 753 mmHg 68%
    22:00 +22°C° 0 mm 3 mps 753 mmHg 71%
    23:00 +21°C° 0 mm 3 mps 753 mmHg 73%

    27 August, Tuesday

    Time Temperature Precipitation Wind Pressure Humidity
    00:00 +21°C° 0 mm 3 mps 753 mmHg 75%
    01:00 +20°C° 0 mm 3 mps 753 mmHg 77%
    02:00 +20°C° 0 mm 3 mps 752 mmHg 78%
    03:00 +19°C° 0 mm 3 mps 752 mmHg 79%
    04:00 +19°C° 0 mm 3 mps 752 mmHg 79%
    05:00 +20°C° 0 mm 3 mps 753 mmHg 75%
    06:00 +21°C° 0 mm 3 mps 753 mmHg 72%
    07:00 +21°C° 0 mm 4 mps 753 mmHg 68%
    08:00 +23°C° 0 mm 4 mps 753 mmHg 62%
    09:00 +26°C° 0 mm 4 mps 753 mmHg 57%
    10:00 +28°C° 0 mm 4 mps 753 mmHg 51%
    11:00 +30°C° 0 mm 4 mps 752 mmHg 48%
    12:00 +32°C° 0 mm 4 mps 752 mmHg 44%
    13:00 +33°C° 0 mm 4 mps 752 mmHg 41%
    14:00 +33°C° 0 mm 4 mps 752 mmHg 41%
    15:00 +33°C° 0 mm 4 mps 752 mmHg 40%
    16:00 +34°C° 0 mm 4 mps 751 mmHg 40%
    17:00 +32°C° 0 mm 4 mps 751 mmHg 46%
    18:00 +29°C° 0 mm 4 mps 751 mmHg 52%
    19:00 +27°C° 0 mm 4 mps 751 mmHg 57%
    20:00 +26°C° 0 mm 4 mps 751 mmHg 60%
    21:00 +26°C° 0 mm 4 mps 751 mmHg 62%
    22:00 +25°C° 0 mm 4 mps 751 mmHg 64%
    23:00 +25°C° 0 mm 4 mps 751 mmHg 67%

    28 August, Wednesday

    Time Temperature Precipitation Wind Pressure Humidity
    00:00 +23°C° 0 mm 4 mps 751 mmHg 69%
    01:00 +22°C° 0 mm 3 mps 751 mmHg 72%
    02:00 +22°C° 0 mm 3 mps 751 mmHg 73%
    03:00 +22°C° 0 mm 3 mps 751 mmHg 75%
    04:00 +21°C° 0 mm 3 mps 751 mmHg 76%
    05:00 +22°C° 0.1 mm 3 mps 751 mmHg 74%
    06:00 +24°C° 0.1 mm 3 mps 751 mmHg 72%
    07:00 +25°C° 0.1 mm 3 mps 751 mmHg 70%
    08:00 +27°C° 0 mm 3 mps 750 mmHg 62%
    09:00 +29°C° 0 mm 3 mps 750 mmHg 55%
    10:00 +31°C° 0 mm 3 mps 750 mmHg 47%
    11:00 +33°C° 0 mm 3 mps 750 mmHg 42%
    12:00 +35°C° 0 mm 4 mps 750 mmHg 37%
    13:00 +36°C° 0 mm 4 mps 750 mmHg 32%
    14:00 +35°C° 0 mm 4 mps 749 mmHg 33%
    15:00 +35°C° 0 mm 4 mps 749 mmHg 34%
    16:00 +35°C° 0 mm 3 mps 749 mmHg 35%
    17:00 +33°C° 0 mm 3 mps 749 mmHg 39%
    18:00 +30°C° 0 mm 3 mps 749 mmHg 44%
    19:00 +28°C° 0 mm 3 mps 749 mmHg 48%
    20:00 +27°C° 0.5 mm 3 mps 750 mmHg 58%
    21:00 +25°C° 0.5 mm 3 mps 750 mmHg 68%
    22:00 +24°C° 0.5 mm 3 mps 750 mmHg 78%
    23:00 +22°C° 0.9 mm 3 mps 750 mmHg 80%
    Show more